{"data":{"norad_id":53631,"intl_designator":"2022-104AV","name":"STARLINK-4599","alt_names":[],"object_type":"PAYLOAD","status":"ACTIVE","operator":null,"country":"US","launch_date":"2022-08-28","launch_site_code":"AFETR","launch_vehicle":null,"mission":null,"orbit_class":"UNKNOWN","rcs_meters":null,"size_class":null,"mass_kg":null,"dimensions":null,"purposes":["comms"],"wikipedia_slug":null,"has_3d_model":false,"image_url":null,"decayed_at":null,"tle_current":{"epoch":"2026-09-20T22:29:00.952512Z","epoch_age_seconds":43966,"freshness":"FRESH","line1":"1 53631U 22104AV  26263.93681658 -.00000066  00000+0  90032-5 0  9993","line2":"2 53631  53.1602  65.5289 0001121  88.1927 271.9204 15.35401186225392","mean_motion":15.35401186,"eccentricity":0.0001121,"inclination_deg":53.1602,"raan_deg":65.5289,"arg_perigee_deg":88.1927,"mean_anomaly_deg":271.9204,"bstar":9.0032e-6,"rev_number":22539,"period_min":93.786562960229,"perigee_km":458.96259673478,"apogee_km":460.49564631922,"semimajor_km":6837.866121527,"source":"CELESTRAK","updated_at":"2026-09-21T09:00:32.944692Z"}}}